1508612400.19,57737,12.94,73560.0,-3.07,-37.39,-38.17,0,*56
1508612401.42,57738,12.94,73556.0,-3.07,-37.09,-38.05,0,*59
1508612402.66,57739,12.94,73558.0,-3.07,-36.91,-37.87,0,*5D
1508612403.9,57740,12.94,73558.8,-3.05,-36.85,-37.75,0,*59
1508612405.16,57741,12.94,73564.3,-3.07,-37.09,-37.99,0,*5D
1508612406.39,57742,12.94,73564.5,-3.07,-37.09,-38.05,0,*54
1508612407.63,57743,12.94,73564.3,-3.07,-37.03,-37.99,0,*55
1508612408.87,57744,12.94,73570.3,-3.07,-36.91,-37.87,0,*57
1508612410.13,57745,12.94,73566.0,-3.05,-36.79,-37.75,0,*5F
1508612411.39,57746,12.94,73562.8,-3.07,-36.91,-37.81,0,*53
1508612412.63,57747,12.94,73564.5,-3.07,-36.85,-37.81,0,*57
1508612413.89,57748,12.94,73562.0,-3.09,-36.85,-37.81,0,*56
1508612415.16,57749,12.94,73556.8,-3.09,-36.85,-37.81,0,*57
1508612416.42,57750,12.94,73556.5,-3.09,-36.85,-37.69,0,*59
1508612417.66,57751,12.94,73558.5,-3.09,-36.67,-37.57,0,*59
1508612418.92,57752,12.94,73554.3,-3.09,-36.73,-37.69,0,*52
1508612420.18,57753,12.94,73552.0,-3.09,-36.73,-37.81,0,*55
1508612421.42,57754,12.94,73548.0,-3.09,-36.73,-37.57,0,*59
1508612422.66,57755,12.94,73552.0,-3.09,-36.67,-37.57,0,*5D
1508612423.93,57756,12.94,73550.0,-3.09,-36.55,-37.63,0,*58
1508612425.16,57757,12.94,73548.0,-3.11,-36.73,-37.69,0,*5E
1508612426.43,57758,12.94,73548.5,-3.09,-36.55,-37.63,0,*56
1508612427.7,57759,12.94,73556.3,-3.09,-36.55,-37.63,0,*57
1508612428.96,57760,12.94,73556.0,-3.09,-36.55,-37.69,0,*57
1508612430.25,57761,12.94,73558.5,-3.09,-36.49,-37.63,0,*51
1508612431.5,57762,12.94,73556.3,-3.11,-36.79,-37.93,0,*57
1508612432.74,57763,12.94,73556.3,-3.09,-36.73,-37.87,0,*50
1508612434.01,57764,12.94,73566.0,-3.09,-36.73,-37.99,0,*58
1508612435.24,57765,12.94,73564.5,-3.11,-36.79,-38.05,0,*50
1508612436.5,57766,12.94,73560.3,-3.09,-36.73,-37.81,0,*53
1508612437.79,57767,12.94,73560.3,-3.09,-36.91,-37.69,0,*58
1508612439.02,57768,12.94,73558.3,-3.11,-36.97,-37.93,0,*5D
1508612440.26,57769,12.94,73558.0,-3.11,-37.03,-37.99,0,*5A
1508612441.47,57770,12.94,73556.3,-3.11,-36.97,-38.05,0,*54
1508612442.73,57771,12.94,73556.0,-3.11,-37.09,-38.23,0,*57
1508612443.97,57772,12.94,73558.5,-3.09,-37.03,-38.17,0,*50
1508612445.2,57773,12.94,73558.0,-3.09,-37.03,-38.17,0,*51
1508612446.46,57774,12.94,73558.8,-3.11,-36.91,-38.11,0,*53
1508612447.72,57775,12.94,73558.8,-3.11,-36.91,-37.93,0,*57
1508612448.96,57776,12.94,73554.5,-3.09,-36.67,-37.87,0,*51
1508612450.19,57777,12.94,73562.5,-3.11,-36.73,-37.93,0,*59
1508612451.46,57778,12.94,73560.5,-3.09,-36.67,-37.99,0,*50
1508612452.72,57779,12.94,73556.8,-3.11,-36.61,-37.93,0,*54
1508612453.93,57780,12.94,73558.3,-3.11,-36.43,-37.87,0,*57
1508612455.21,57781,12.94,73552.3,-3.13,-36.37,-37.93,0,*52
1508612456.45,57782,12.94,73552.8,-3.11,-36.73,-38.23,0,*57
1508612457.71,57783,12.94,73548.3,-3.13,-36.73,-38.11,0,*55
1508612458.99,57784,12.94,73542.8,-3.13,-36.79,-38.29,0,*53
1508612460.26,57785,12.94,73536.5,-3.13,-36.97,-38.49,0,*54
1508612461.49,57786,12.94,73530.8,-3.13,-37.15,-38.61,0,*56
1508612462.72,57787,12.94,73524.5,-3.13,-37.15,-38.61,0,*57
1508612463.95,57788,12.94,73518.8,-3.17,-37.33,-38.73,0,*5B
1508612465.23,57789,12.94,73508.0,-3.13,-37.51,-38.79,0,*50
1508612466.48,57790,12.94,73498.3,-3.13,-37.45,-38.67,0,*52
1508612467.74,57791,12.94,73500.0,-3.13,-37.69,-38.85,0,*51
1508612469.02,57792,12.94,73506.0,-3.13,-37.69,-38.91,0,*57
1508612470.3,57793,12.94,73506.5,-3.17,-37.69,-38.91,0,*52
1508612471.54,57794,12.94,73510.3,-3.17,-37.75,-38.85,0,*5D
1508612472.79,57795,12.94,73518.5,-3.17,-37.93,-38.97,0,*57
1508612474.08,57796,12.94,73522.0,-3.17,-37.81,-38.91,0,*51
1508612475.34,57797,12.94,73524.5,-3.17,-37.93,-38.97,0,*55
1508612476.6,57798,12.94,73524.8,-3.17,-37.81,-38.97,0,*59
1508612477.86,57799,12.94,73530.3,-3.17,-37.81,-38.97,0,*58
1508612479.12,57800,12.94,73532.8,-3.17,-37.93,-38.97,0,*54
1508612480.4,57801,12.94,73532.8,-3.17,-37.99,-39.29,0,*5B
1508612481.63,57802,12.94,73528.0,-3.19,-37.93,-38.97,0,*58
1508612482.86,57803,12.94,73524.5,-3.19,-37.93,-38.97,0,*59
1508612484.12,57804,12.94,73532.8,-3.19,-37.93,-39.29,0,*5A
1508612485.37,57805,12.94,73538.0,-3.19,-37.99,-39.15,0,*5E
1508612486.61,57806,12.94,73540.5,-3.19,-37.81,-38.97,0,*5F
1508612487.84,57807,12.94,73546.3,-3.21,-38.05,-38.97,0,*56
1508612489.1,57808,12.94,73546.8,-3.21,-38.17,-39.03,0,*56
1508612490.36,57809,12.94,73548.3,-3.19,-37.99,-38.91,0,*5F
1508612491.65,57810,12.94,73550.8,-3.21,-37.81,-38.79,0,*53
1508612492.92,57811,12.94,73552.0,-3.21,-37.87,-38.91,0,*52
1508612494.18,57812,12.94,73556.3,-3.21,-37.87,-38.91,0,*51
1508612495.41,57813,12.94,73550.3,-3.23,-37.99,-38.97,0,*5B
1508612496.64,57814,12.94,73550.0,-3.21,-38.05,-38.97,0,*54
1508612497.87,57815,12.94,73550.5,-3.21,-38.17,-38.97,0,*56
1508612499.1,57816,12.94,73540.8,-3.21,-38.05,-38.97,0,*56
1508612500.33,57817,12.94,73540.0,-3.23,-38.05,-39.03,0,*59
1508612501.58,57818,12.94,73556.8,-3.23,-37.99,-39.03,0,*5C
1508612502.78,57819,12.94,73566.3,-3.23,-38.05,-38.97,0,*5B
1508612503.99,57820,12.94,73568.3,-3.23,-37.87,-38.97,0,*54
1508612505.22,57821,12.94,73570.0,-3.23,-37.99,-38.97,0,*5A
1508612506.45,57822,12.94,73568.0,-3.25,-38.05,-38.97,0,*55
1508612507.68,57823,12.94,73568.5,-3.25,-37.87,-38.97,0,*51
1508612508.94,57824,12.94,73566.3,-3.25,-37.93,-38.97,0,*53
1508612510.17,57825,12.94,73562.5,-3.25,-37.87,-38.97,0,*57
1508612511.4,57826,12.94,73562.3,-3.25,-38.05,-38.97,0,*51
1508612512.63,57827,12.94,73570.3,-3.25,-38.05,-38.97,0,*50
1508612513.86,57828,12.94,73568.8,-3.25,-37.87,-38.97,0,*5A
1508612515.1,57829,12.94,73578.3,-3.25,-37.87,-38.97,0,*5B
1508612516.3,57830,12.94,73568.3,-3.27,-37.87,-38.73,0,*5B
1508612517.59,57831,12.94,73562.5,-3.29,-37.69,-38.67,0,*51
1508612518.79,57832,12.94,73564.3,-3.27,-37.75,-38.85,0,*5D
1508612520.0,57833,12.94,73562.0,-3.27,-37.87,-38.85,0,*51
1508612521.24,57834,12.94,73568.0,-3.29,-37.87,-38.85,0,*58
1508612522.47,57835,12.94,73562.0,-3.27,-37.51,-38.55,0,*51
1508612523.71,57836,12.94,73566.0,-3.27,-37.33,-38.29,0,*5D
1508612524.94,57837,12.94,73570.5,-3.27,-37.15,-38.11,0,*53
1508612526.15,57838,12.94,73564.3,-3.27,-36.97,-37.87,0,*57
1508612527.36,57839,12.94,73564.0,-3.27,-36.67,-37.75,0,*54
1508612528.6,57840,12.94,73560.5,-3.27,-36.85,-37.99,0,*54
1508612529.86,57841,12.94,73558.5,-3.25,-36.97,-38.23,0,*5A
1508612531.12,57842,12.94,73556.0,-3.27,-37.21,-38.49,0,*5B
1508612532.35,57843,12.94,73562.0,-3.27,-37.51,-38.73,0,*54
1508612533.58,57844,12.94,73560.5,-3.27,-37.57,-38.91,0,*59
1508612534.83,57845,12.94,73558.5,-3.27,-37.51,-38.91,0,*5E
1508612536.09,57846,12.94,73558.3,-3.29,-37.51,-38.85,0,*56
1508612537.32,57847,12.94,73558.5,-3.27,-37.39,-38.85,0,*57
1508612538.53,57848,12.94,73550.8,-3.27,-37.33,-38.55,0,*5F
1508612539.74,57849,12.94,73550.3,-3.27,-36.97,-38.17,0,*57
1508612540.95,57850,12.94,73548.8,-3.27,-36.97,-38.17,0,*5F
1508612542.19,57851,12.94,73546.8,-3.27,-36.97,-38.29,0,*53
1508612543.41,57852,12.94,73544.8,-3.27,-36.67,-38.11,0,*54
1508612544.63,57853,12.94,73540.3,-3.27,-36.97,-38.35,0,*5C
1508612545.89,57854,12.94,73532.0,-3.29,-37.15,-38.49,0,*55
1508612547.09,57855,12.94,73538.0,-3.27,-36.85,-38.17,0,*59
1508612548.33,57856,12.94,73534.5,-3.27,-37.15,-38.49,0,*59
1508612549.59,57857,12.94,73520.0,-3.25,-36.97,-38.29,0,*57
1508612550.82,57858,12.94,73524.0,-3.27,-37.33,-38.67,0,*5F
1508612552.08,57859,12.94,73524.3,-3.25,-37.33,-38.67,0,*5C
1508612553.33,57860,12.94,73532.3,-3.25,-37.45,-38.49,0,*5B
1508612554.59,57861,12.94,73520.0,-3.25,-37.27,-38.23,0,*52
1508612555.86,57862,12.94,73522.3,-3.27,-37.21,-38.11,0,*54
1508612557.09,57863,12.94,73530.8,-3.27,-37.03,-37.99,0,*5A
1508612558.32,57864,12.94,73530.5,-3.23,-37.21,-38.05,0,*53
1508612559.58,57865,12.94,73534.3,-3.25,-37.15,-37.93,0,*53
1508612560.79,57866,12.94,73532.0,-3.23,-37.03,-37.87,0,*54
1508612562.02,57867,12.94,73538.5,-3.21,-37.03,-38.17,0,*51
1508612563.23,57868,12.94,73532.3,-3.23,-37.45,-38.43,0,*5F
1508612564.43,57869,12.94,73530.0,-3.23,-37.45,-38.61,0,*5E
1508612565.63,57870,12.94,73528.8,-3.23,-37.45,-38.73,0,*55
1508612566.89,57871,12.94,73538.0,-3.25,-37.69,-38.97,0,*56
1508612568.11,57872,12.94,73540.3,-3.23,-37.39,-38.73,0,*5C
1508612569.37,57873,12.94,73540.0,-3.23,-37.63,-38.79,0,*58
1508612570.6,57874,12.94,73542.0,-3.25,-37.45,-38.61,0,*54
1508612571.8,57875,12.94,73536.3,-3.23,-37.45,-38.73,0,*50
1508612573.06,57876,12.94,73540.3,-3.25,-37.63,-38.85,0,*58
1508612574.31,57877,12.94,73536.8,-3.25,-37.69,-38.97,0,*50
1508612575.58,57878,12.94,73540.3,-3.25,-37.81,-39.09,0,*5F
1508612576.84,57879,12.94,73538.5,-3.25,-37.87,-39.29,0,*5A
1508612578.06,57880,12.94,73538.0,-3.27,-38.11,-39.47,0,*56
1508612579.29,57881,12.94,73536.5,-3.27,-37.99,-39.09,0,*52
1508612580.54,57882,12.94,73544.0,-3.27,-38.11,-39.15,0,*53
1508612581.79,57883,12.94,73546.5,-3.27,-38.11,-39.15,0,*52
1508612583.05,57884,12.94,73546.0,-3.29,-37.99,-39.09,0,*59
1508612584.33,57885,12.94,73548.5,-3.29,-38.11,-39.15,0,*5A
1508612585.57,57886,12.94,73550.0,-3.29,-37.87,-39.09,0,*54
1508612586.85,57887,12.94,73552.0,-3.29,-37.93,-39.15,0,*5D
1508612588.11,57888,12.94,73550.8,-3.29,-37.93,-39.09,0,*5F
1508612589.39,57889,12.94,73552.0,-3.29,-37.93,-39.15,0,*53
1508612590.63,57890,12.94,73558.5,-3.29,-37.87,-39.09,0,*53
1508612591.91,57891,12.94,73560.3,-3.33,-37.99,-39.23,0,*5E
1508612593.17,57892,12.94,73552.5,-3.33,-38.05,-39.41,0,*53
1508612594.43,57893,12.94,73548.3,-3.35,-37.93,-39.15,0,*55
1508612595.69,57894,12.94,73548.8,-3.33,-38.17,-39.41,0,*56
1508612596.92,57895,12.94,73550.8,-3.35,-38.05,-39.41,0,*52
1508612598.15,57896,12.94,73548.5,-3.35,-38.05,-39.23,0,*55
1508612599.41,57897,12.94,73554.3,-3.33,-38.05,-39.23,0,*52
1508612600.67,57898,12.94,73558.5,-3.35,-37.93,-39.15,0,*5E
1508612601.9,57899,12.94,73554.8,-3.35,-38.05,-39.41,0,*5E
1508612603.13,57900,12.94,73556.0,-3.35,-38.35,-39.41,0,*5C
1508612604.41,57901,12.94,73556.8,-3.37,-38.23,-39.29,0,*56
1508612605.66,57902,12.94,73554.0,-3.37,-38.23,-39.47,0,*5D
1508612606.94,57903,12.94,73552.5,-3.37,-38.23,-39.29,0,*54
1508612608.19,57904,12.94,73558.8,-3.39,-38.29,-39.23,0,*5D
1508612609.44,57905,12.94,73558.8,-3.39,-38.23,-39.29,0,*5C
1508612610.67,57906,12.94,73552.0,-3.39,-38.05,-39.29,0,*5B
1508612611.93,57907,12.94,73554.0,-3.37,-38.05,-39.15,0,*5B
1508612613.16,57908,12.94,73552.8,-3.39,-38.05,-39.15,0,*5A
1508612614.44,57909,12.94,73550.3,-3.37,-37.99,-39.03,0,*58
1508612615.67,57910,12.94,73558.0,-3.39,-37.87,-39.03,0,*51
1508612616.93,57911,12.94,73556.8,-3.39,-37.99,-39.03,0,*5F
1508612618.16,57912,12.94,73552.0,-3.39,-37.33,-38.49,0,*53
1508612619.39,57913,12.94,73552.8,-3.39,-37.69,-38.97,0,*5E
1508612620.65,57914,12.94,73550.3,-3.37,-37.69,-38.85,0,*54
1508612621.88,57915,12.94,73554.8,-3.39,-37.45,-38.67,0,*59
1508612623.11,57916,12.94,73552.0,-3.39,-37.27,-38.29,0,*54
1508612624.37,57917,12.94,73554.0,-3.39,-37.63,-38.79,0,*50
1508612625.6,57918,12.94,73556.5,-3.39,-37.33,-38.67,0,*55
1508612626.8,57919,12.94,73558.8,-3.39,-37.45,-38.61,0,*53
1508612628.03,57920,12.94,73554.8,-3.43,-37.57,-38.85,0,*5D
1508612629.28,57921,12.94,73558.8,-3.43,-37.75,-39.03,0,*53
1508612630.56,57922,12.94,73560.8,-3.43,-37.69,-38.91,0,*57
1508612631.84,57923,12.94,73560.5,-3.43,-37.93,-39.23,0,*5B
1508612633.06,57924,12.94,73558.3,-3.43,-37.57,-38.73,0,*50
1508612634.34,57925,12.94,73558.8,-3.43,-37.69,-38.67,0,*59
1508612635.6,57926,12.94,73560.0,-3.43,-37.51,-38.55,0,*50
1508612636.85,57927,12.94,73562.0,-3.43,-37.51,-38.73,0,*55
1508612638.11,57928,12.94,73562.0,-3.43,-37.57,-38.91,0,*50
1508612639.36,57929,12.94,73562.0,-3.43,-37.87,-39.23,0,*54
1508612640.61,57930,12.94,73560.5,-3.43,-38.05,-39.29,0,*53
1508612641.84,57931,12.94,73562.5,-3.45,-37.99,-39.35,0,*53
1508612643.05,57932,12.94,73562.8,-3.45,-38.11,-39.35,0,*5F
1508612644.3,57933,12.94,73560.8,-3.43,-38.11,-39.35,0,*58
1508612645.51,57934,12.94,73562.3,-3.45,-38.11,-39.35,0,*59
1508612646.72,57935,12.94,73566.3,-3.45,-37.75,-38.97,0,*5C
1508612647.98,57936,12.94,73564.3,-3.45,-37.81,-39.15,0,*5F
1508612649.23,57937,12.94,73562.3,-3.45,-37.63,-38.91,0,*5F
1508612650.49,57938,12.94,73558.8,-3.45,-37.81,-38.91,0,*5C
1508612651.72,57939,12.94,73558.8,-3.43,-37.75,-38.97,0,*56
1508612652.97,57940,12.94,73560.3,-3.43,-37.93,-39.09,0,*56
1508612654.22,57941,12.94,73564.3,-3.43,-37.75,-39.03,0,*55
1508612655.48,57942,12.94,73564.5,-3.45,-37.63,-38.79,0,*5B
1508612656.71,57943,12.94,73564.8,-3.43,-37.75,-39.09,0,*5D
1508612657.96,57944,12.94,73568.5,-3.45,-37.99,-39.29,0,*5C
1508612659.21,57945,12.94,73570.8,-3.45,-37.93,-39.29,0,*57
1508612660.46,57946,12.94,73570.3,-3.45,-37.93,-39.29,0,*54
1508612661.72,57947,12.94,73564.5,-3.45,-37.93,-39.15,0,*5A
1508612662.97,57948,12.94,73568.8,-3.45,-37.99,-39.29,0,*50
1508612664.23,57949,12.94,73568.8,-3.45,-37.81,-39.15,0,*57
1508612665.48,57950,12.94,73566.5,-3.45,-37.99,-39.29,0,*59
1508612666.71,57951,12.94,73566.0,-3.45,-37.87,-39.23,0,*5D
1508612667.93,57952,12.94,73560.5,-3.45,-38.11,-39.35,0,*59
1508612669.15,57953,12.94,73564.8,-3.45,-37.93,-39.35,0,*5D
1508612670.35,57954,12.94,73566.3,-3.45,-37.75,-39.09,0,*5D
1508612671.61,57955,12.94,73564.3,-3.45,-37.99,-39.29,0,*5C
1508612672.83,57956,12.94,73566.3,-3.45,-37.99,-39.35,0,*52
1508612674.07,57957,12.94,73566.8,-3.47,-37.99,-39.35,0,*51
1508612675.33,57958,12.94,73560.5,-3.47,-38.17,-39.71,0,*57
1508612676.58,57959,12.94,73562.0,-3.47,-38.23,-39.91,0,*5F
1508612677.83,57960,12.94,73556.8,-3.47,-38.43,-39.79,0,*55
1508612679.06,57961,12.94,73556.3,-3.47,-38.55,-39.91,0,*55
1508612680.27,57962,12.94,73554.5,-3.49,-38.61,-40.03,0,*5A
1508612681.5,57963,12.94,73552.3,-3.49,-38.67,-40.15,0,*5A
1508612682.73,57964,12.94,73552.5,-3.49,-38.79,-40.03,0,*55
1508612683.97,57965,12.94,73552.0,-3.49,-38.79,-40.15,0,*53
1508612685.22,57966,12.94,73552.5,-3.47,-38.73,-40.09,0,*59
1508612686.46,57967,12.94,73554.5,-3.49,-38.79,-40.15,0,*51
1508612687.69,57968,12.94,73552.0,-3.49,-38.67,-40.15,0,*51
1508612688.94,57969,12.94,73550.3,-3.51,-38.67,-40.03,0,*5E
1508612690.19,57970,12.94,73544.3,-3.51,-38.67,-39.85,0,*56
1508612691.45,57971,12.94,73546.8,-3.51,-38.67,-39.85,0,*57
1508612692.74,57972,12.94,73550.8,-3.51,-38.49,-39.79,0,*5B
1508612693.97,57973,12.94,73544.5,-3.51,-38.43,-39.85,0,*53
1508612695.23,57974,12.94,73548.3,-3.51,-38.43,-39.79,0,*57
1508612696.45,57975,12.94,73546.8,-3.53,-38.35,-39.53,0,*5D
1508612697.66,57976,12.94,73546.0,-3.53,-38.35,-39.85,0,*55
1508612698.92,57977,12.94,73548.3,-3.53,-38.49,-39.71,0,*54
1508612700.19,57978,12.94,73542.0,-3.51,-38.43,-39.79,0,*5B
1508612701.44,57979,12.94,73536.0,-3.53,-38.67,-39.71,0,*56
1508612702.71,57980,12.94,73538.3,-3.51,-38.49,-39.65,0,*5B
1508612703.96,57981,12.94,73538.0,-3.53,-38.29,-39.53,0,*5B
1508612705.17,57982,12.94,73532.8,-3.53,-38.55,-39.85,0,*58
1508612706.44,57983,12.94,73534.8,-3.53,-38.49,-39.71,0,*5F
1508612707.69,57984,12.94,73528.3,-3.53,-38.11,-39.41,0,*56
1508612708.92,57985,12.94,73524.3,-3.53,-38.05,-39.29,0,*5C
1508612710.16,57986,12.94,73526.5,-3.53,-37.93,-39.09,0,*5D
1508612711.42,57987,12.94,73548.8,-3.53,-37.93,-39.23,0,*54
1508612712.65,57988,12.94,73564.0,-3.53,-37.87,-39.29,0,*54
1508612713.94,57989,12.94,73558.3,-3.51,-37.51,-38.91,0,*5E
1508612715.15,57990,12.94,73552.0,-3.53,-37.57,-38.85,0,*57
1508612716.38,57991,12.94,73546.5,-3.53,-37.69,-39.09,0,*5E
1508612717.61,57992,12.94,73542.8,-3.53,-37.75,-39.29,0,*52
1508612718.84,57993,12.94,73536.5,-3.53,-38.05,-39.53,0,*56
1508612720.07,57994,12.94,73536.8,-3.53,-38.05,-39.53,0,*51
1508612721.3,57995,12.94,73538.3,-3.51,-38.17,-39.47,0,*54
1508612722.56,57996,12.94,73542.8,-3.53,-38.29,-39.71,0,*5D
1508612723.77,57997,12.94,73550.0,-3.53,-38.35,-39.65,0,*54
1508612725.01,57998,12.94,73550.3,-3.53,-38.49,-39.85,0,*5E
1508612726.24,57999,12.94,73552.5,-3.53,-38.49,-39.85,0,*5F
1508612727.48,58000,12.94,73550.3,-3.53,-38.49,-39.85,0,*59
1508612728.72,58001,12.94,73550.8,-3.51,-38.61,-39.91,0,*55
1508612729.97,58002,12.94,73550.8,-3.55,-38.67,-39.85,0,*51
1508612731.19,58003,12.94,73558.3,-3.55,-38.73,-40.03,0,*55
1508612732.45,58004,12.94,73562.3,-3.55,-38.67,-39.91,0,*52
1508612733.7,58005,12.94,73550.8,-3.55,-38.49,-39.47,0,*54
1508612734.93,58006,12.94,73554.5,-3.57,-38.73,-39.53,0,*59
1508612736.15,58007,12.94,73552.3,-3.55,-38.55,-39.47,0,*5B
1508612737.38,58008,12.94,73550.3,-3.57,-38.43,-39.53,0,*54
1508612738.63,58009,12.94,73548.3,-3.55,-38.35,-39.41,0,*55
1508612739.83,58010,12.94,73554.8,-3.57,-38.17,-39.47,0,*59
1508612741.03,58011,12.94,73556.8,-3.57,-38.35,-39.47,0,*58
1508612742.28,58012,12.94,73552.3,-3.55,-38.29,-39.47,0,*54
1508612743.51,58013,12.94,73554.0,-3.57,-38.35,-39.53,0,*5F
1508612744.75,58014,12.94,73550.0,-3.57,-38.43,-39.59,0,*53
1508612745.98,58015,12.94,73550.0,-3.57,-38.35,-39.59,0,*53
1508612747.22,58016,12.94,73550.5,-3.57,-38.43,-39.59,0,*51
1508612748.46,58017,12.94,73550.3,-3.57,-38.61,-39.59,0,*50
1508612749.71,58018,12.94,73546.3,-3.59,-38.35,-39.53,0,*5A
1508612750.94,58019,12.94,73540.8,-3.61,-38.35,-39.53,0,*50
1508612752.16,58020,12.94,73544.8,-3.59,-38.35,-39.35,0,*51
1508612753.42,58021,12.94,73548.5,-3.59,-37.99,-39.09,0,*56
1508612754.71,58022,12.94,73542.8,-3.59,-37.93,-38.91,0,*5F
1508612755.97,58023,12.94,73540.8,-3.59,-37.81,-39.09,0,*5D
1508612757.24,58024,12.94,73540.0,-3.59,-37.81,-38.97,0,*5C
1508612758.49,58025,12.94,73538.5,-3.59,-37.63,-38.97,0,*51
1508612759.72,58026,12.94,73540.0,-3.59,-37.75,-38.97,0,*55
1508612760.95,58027,12.94,73530.5,-3.59,-37.57,-38.73,0,*5E
1508612762.18,58028,12.94,73520.3,-3.59,-37.75,-39.09,0,*5D
1508612763.47,58029,12.94,73522.5,-3.59,-37.93,-39.29,0,*56
1508612764.69,58030,12.94,73534.3,-3.59,-38.17,-39.47,0,*55
1508612765.96,58031,12.94,73534.0,-3.57,-38.29,-39.59,0,*58
1508612767.24,58032,12.94,73534.5,-3.59,-38.29,-39.53,0,*5F
1508612768.49,58033,12.94,73536.3,-3.59,-38.29,-39.47,0,*5B
1508612769.72,58034,12.94,73538.8,-3.61,-38.17,-39.23,0,*58
1508612771.01,58035,12.94,73538.3,-3.59,-37.81,-39.15,0,*57
1508612772.28,58036,12.94,73536.5,-3.59,-37.81,-38.97,0,*5F
1508612773.51,58037,12.94,73538.5,-3.59,-37.75,-38.97,0,*55
1508612774.74,58038,12.94,73540.3,-3.59,-37.75,-38.97,0,*5A
1508612775.97,58039,12.94,73536.8,-3.59,-37.57,-38.73,0,*51
1508612777.21,58040,12.94,73542.8,-3.57,-37.63,-38.55,0,*52
1508612778.46,58041,12.94,73538.8,-3.55,-37.57,-38.67,0,*57
1508612779.72,58042,12.94,73534.3,-3.55,-37.87,-38.67,0,*59
1508612780.96,58043,12.94,73538.5,-3.57,-37.81,-38.61,0,*5A
1508612782.22,58044,12.94,73532.8,-3.55,-37.75,-38.67,0,*52
1508612783.45,58045,12.94,73530.8,-3.57,-37.93,-38.97,0,*56
1508612784.71,58046,12.94,73528.0,-3.57,-37.99,-39.29,0,*5B
1508612785.94,58047,12.94,73526.5,-3.57,-37.75,-39.03,0,*50
1508612787.2,58048,12.94,73534.5,-3.55,-37.51,-38.55,0,*59
1508612788.41,58049,12.94,73536.8,-3.57,-37.45,-38.43,0,*58
1508612789.67,58050,12.94,73538.3,-3.55,-37.39,-38.55,0,*5E
1508612790.93,58051,12.94,73542.5,-3.55,-37.03,-38.23,0,*57
1508612792.2,58052,12.94,73542.5,-3.53,-37.21,-38.29,0,*58
1508612793.44,58053,12.94,73538.0,-3.51,-37.27,-38.43,0,*51
1508612794.7,58054,12.94,73538.8,-3.53,-37.51,-38.67,0,*53
1508612795.91,58055,12.94,73534.3,-3.53,-37.45,-38.61,0,*51
1508612797.12,58056,12.94,73534.8,-3.53,-37.57,-38.85,0,*5B
1508612798.35,58057,12.94,73538.5,-3.53,-37.51,-38.73,0,*55
1508612799.58,58058,12.94,73546.0,-3.53,-37.69,-38.85,0,*58
1508612800.81,58059,12.94,73544.5,-3.53,-37.75,-39.23,0,*59
1508612802.05,58060,12.94,73546.0,-3.53,-37.87,-39.29,0,*54
1508612803.33,58061,12.94,73548.8,-3.51,-37.99,-39.23,0,*52
1508612804.61,58062,12.94,73544.3,-3.51,-37.99,-39.15,0,*54
1508612805.87,58063,12.94,73548.0,-3.51,-37.99,-39.35,0,*57
1508612807.12,58064,12.94,73546.3,-3.51,-38.29,-39.35,0,*54
1508612808.34,58065,12.94,73550.3,-3.51,-38.17,-39.35,0,*58
1508612809.63,58066,12.94,73544.3,-3.51,-37.99,-39.23,0,*55
1508612810.85,58067,12.94,73550.3,-3.53,-38.35,-39.23,0,*5F
1508612812.14,58068,12.94,73546.3,-3.51,-37.99,-39.15,0,*5E
1508612813.39,58069,12.94,73544.5,-3.51,-38.23,-39.35,0,*53
1508612814.65,58070,12.94,73542.5,-3.51,-38.49,-39.65,0,*52
1508612815.92,58071,12.94,73540.0,-3.51,-38.49,-39.65,0,*53
1508612817.21,58072,12.94,73526.8,-3.51,-38.49,-39.79,0,*5D
1508612818.42,58073,12.94,73526.8,-3.53,-38.55,-39.91,0,*55
1508612819.65,58074,12.94,73532.0,-3.53,-38.67,-40.03,0,*56
1508612820.86,58075,12.94,73528.0,-3.53,-38.55,-39.91,0,*53
1508612822.13,58076,12.94,73518.3,-3.51,-38.49,-39.65,0,*54
1508612823.36,58077,12.94,73530.3,-3.53,-38.67,-39.91,0,*50
1508612824.59,58078,12.94,73522.8,-3.53,-38.67,-40.03,0,*5A
1508612825.8,58079,12.94,73522.8,-3.53,-38.55,-39.91,0,*5F
1508612827.07,58080,12.94,73530.3,-3.53,-38.49,-39.71,0,*5A
1508612828.3,58081,12.94,73530.5,-3.53,-38.35,-39.71,0,*50
1508612829.54,58082,12.94,73526.3,-3.53,-38.29,-39.85,0,*55
1508612830.77,58083,12.94,73524.3,-3.53,-38.67,-39.91,0,*5B
1508612832.0,58084,12.94,73532.0,-3.53,-38.67,-40.03,0,*59
1508612833.25,58085,12.94,73538.3,-3.55,-38.67,-40.03,0,*5E
1508612834.47,58086,12.94,73532.8,-3.55,-38.73,-40.03,0,*58
1508612835.73,58087,12.94,73536.5,-3.57,-38.91,-40.29,0,*5F
1508612836.97,58088,12.94,73536.3,-3.57,-38.91,-40.47,0,*58
1508612838.23,58089,12.94,73540.3,-3.55,-38.73,-40.41,0,*51
1508612839.46,58090,12.94,73536.3,-3.57,-38.79,-40.35,0,*52
1508612840.7,58091,12.94,73542.5,-3.57,-38.91,-40.35,0,*55
1508612841.91,58092,12.94,73536.5,-3.57,-38.97,-40.53,0,*50
1508612843.11,58093,12.94,73540.8,-3.57,-38.97,-40.47,0,*54
1508612844.32,58094,12.94,73536.5,-3.57,-38.97,-40.53,0,*56
1508612845.58,58095,12.94,73536.0,-3.59,-38.91,-40.35,0,*5F
1508612846.84,58096,12.94,73538.3,-3.59,-38.61,-39.97,0,*55
1508612848.1,58097,12.94,73532.3,-3.59,-38.43,-39.59,0,*56
1508612849.34,58098,12.94,73538.8,-3.59,-38.61,-39.91,0,*5D
1508612850.59,58099,12.94,73538.5,-3.59,-38.43,-39.53,0,*52
1508612851.84,58100,12.94,73542.0,-3.59,-38.43,-39.53,0,*53
1508612853.11,58101,12.94,73542.8,-3.57,-38.29,-39.59,0,*5A
1508612854.34,58102,12.94,73542.3,-3.57,-38.43,-39.53,0,*5F
1508612855.6,58103,12.94,73540.8,-3.57,-38.29,-39.29,0,*5F
1508612856.84,58104,12.94,73542.5,-3.57,-37.99,-39.09,0,*5E
1508612858.07,58105,12.94,73542.0,-3.57,-37.93,-39.09,0,*55
1508612859.33,58106,12.94,73542.8,-3.55,-37.87,-39.03,0,*5B
1508612860.59,58107,12.94,73546.0,-3.55,-37.75,-38.91,0,*5D
1508612861.82,58108,12.94,73542.8,-3.55,-37.75,-39.09,0,*52
1508612863.08,58109,12.94,73546.8,-3.51,-37.87,-39.23,0,*52
1508612864.31,58110,12.94,73534.0,-3.53,-38.49,-39.85,0,*59
1508612865.59,58111,12.94,73536.8,-3.51,-38.23,-39.41,0,*5E
1508612866.87,58112,12.94,73536.5,-3.51,-37.99,-39.23,0,*57
1508612868.13,58113,12.94,73536.5,-3.51,-38.49,-39.35,0,*53
1508612869.36,58114,12.94,73534.0,-3.53,-38.67,-39.91,0,*54
1508612870.64,58115,12.94,73520.5,-3.51,-38.67,-39.97,0,*51
1508612871.93,58116,12.94,73522.0,-3.51,-38.79,-40.21,0,*5E
1508612873.2,58117,12.94,73526.8,-3.51,-39.15,-40.53,0,*51
1508612874.49,58118,12.94,73524.8,-3.51,-38.79,-40.41,0,*56
1508612875.76,58119,12.94,73528.0,-3.51,-39.15,-40.53,0,*5F
1508612877.05,58120,12.94,73528.8,-3.51,-39.15,-40.59,0,*5F
1508612878.29,58121,12.94,73536.0,-3.53,-39.41,-40.65,0,*52
1508612879.52,58122,12.94,73530.8,-3.53,-39.23,-40.65,0,*55
1508612880.76,58123,12.94,73516.3,-3.53,-39.29,-40.65,0,*5E
1508612881.99,58124,12.94,73518.0,-3.53,-39.29,-40.65,0,*59
1508612883.21,58125,12.94,73536.8,-3.53,-39.09,-40.65,0,*5A
1508612884.46,58126,12.94,73540.0,-3.55,-39.03,-40.47,0,*55
1508612885.7,58127,12.94,73524.3,-3.57,-38.73,-40.29,0,*58
1508612886.98,58128,12.94,73520.5,-3.55,-39.03,-40.41,0,*5D
1508612888.22,58129,12.94,73516.0,-3.55,-39.09,-40.47,0,*50
1508612889.5,58130,12.94,73516.5,-3.55,-39.23,-40.59,0,*5F
1508612890.74,58131,12.94,73522.8,-3.57,-39.29,-40.73,0,*5E
1508612892.0,58132,12.94,73516.3,-3.55,-39.23,-40.91,0,*59
1508612893.22,58133,12.94,73518.5,-3.57,-39.35,-40.91,0,*5D
1508612894.5,58134,12.94,73522.3,-3.55,-39.23,-40.79,0,*59
1508612895.72,58135,12.94,73528.5,-3.57,-39.47,-40.91,0,*5E
1508612897.0,58136,12.94,73542.3,-3.57,-39.59,-40.97,0,*54